Погода в Яблонице

Украина / Ивано-Франковская область     48°19′16″N   24°29′17″E
темп.,
°C
ветер,
м/с
пор.,
м/с
влажн.,
%
обл.,
%
осадки,
мм/ч
давл.,
гПа
погр.,
м
24 июня, чт
чт2400:00+15ююз019463 0.5 102011
03:00+15ююз119240 0.6 102011
06:00+15ююз1190100 0.0 101911
09:00+21в11730 0.0 1019240
12:00+27всв11392 0.0 10181730
15:00+29всв22351 0.0 10172302
18:00+25с3356100 1.6 10171248
21:00+16ююз11910 9.4 101812
25 июня, пт
пт2500:00+16ююз11882 0.0 101811
03:00+16ююз1187100 0.0 101711
06:00+16ююз218677 0.0 101613
09:00+24юз126020 0.0 1015292
12:00+28зюз223998 0.0 10152004
15:00+29зюз34383 0.0 10142465
18:00+21всв347697 1.9 1015454
21:00+14ююв359599 6.5 101585
26 июня, сб
сб2600:00+14зюз3599100 2.8 1018182
03:00+13з118883 2.8 101515
06:00+12ссв119236 0.0 101712
09:00+18св117999 0.1 1016383
12:00+22ссв216132 0.2 10151118
15:00+19св118487 6.3 1016484
18:00+18св229054 5.4 1015328
21:00+15св2297100 9.4 101644
27 июня, вс
вс2700:00+13св21100100 2.9 101638
03:00+14ссв129993 4.1 1017107
06:00+14св119996 0.8 101773
09:00+16св229559 1.3 1017373
12:00+17св229056 2.6 1017629
15:00+17св228769 6.0 1017733
18:00+19св226884 0.6 10161086
21:00+16св229080 0.9 101746
28 июня, пн
пн2800:00+14св119772 0.2 101935
03:00+11св119920 0.2 101913
06:00+11ссв119931 0.0 101914
09:00+17св118024 0.1 1019589
12:00+21св225888 0.2 10181563
15:00+19св2163100 0.3 1018812
18:00+18св227995 0.8 1018705
21:00+15всв119638 1.6 101912